Coatesville, PA

9:50 AM EST on November 22, 2019 (GMT -0500)
Chester County Carlson

Weather History for KMQS - September, 2019

Change the Weather History Date:

Thursday, September 19, 2019

  Actual Average (WUND) Record (WUND)
Temperature  
Mean Temperature 58 °F -  
Max Temperature 68 °F - - (-1)
Min Temperature 48 °F - - (-1)
Degree Days  
Heating Degree Days 7    
Growing Degree Days 8 (Base 50)    
Moisture  
Dew Point 45 °F    
Average Humidity 67    
Maximum Humidity 94    
Minimum Humidity 33    
Precipitation  
Precipitation 0.00 in - - ()
Sea Level Pressure  
Sea Level Pressure 30.34 in    
Wind  
Wind Speed 1 mph ()    
Max Wind Speed 10 mph    
Max Gust Speed 21 mph    
Visibility 10.0 miles    
Events      
Averages and records for this station are not official NWS values.
T = Trace of Precipitation, MM = Missing Value Source: Averaged Metar Reports

Daily Weather History Graph

Daily Weather History Graph

Search for Another Location

Airport or City:

Astronomy

Sep. 19, 2019 Rise Set
Actual Time 6:48 AM EDT 7:05 PM EDT
Civil Twilight 6:20 AM EDT 7:32 PM EDT
Nautical Twilight 5:49 AM EDT 8:04 PM EDT
Astronomical Twilight 5:16 AM EDT 8:37 PM EDT
Moon 10:13 PM EDT (9/19) 11:49 AM EDT (9/19)
Length of Visible Light 13h 12m
Length of Day
12h 17m
Waning Gibbous, 74% of the Moon is Illuminated
Sep 19
Waning Gibbous
Sep 21
Last Quarter
Sep 28
New
Oct 5
First Quarter
Oct 13
Full

Hourly Weather History & Observations

Time (EDT) Temp. Dew Point Humidity Pressure Visibility Wind Dir Wind Speed Gust Speed Precip Events Conditions
12:15 AM 53.6 °F 50.0 °F 88% 30.32 in 10.0 mi Calm Calm - N/A   Clear
12:35 AM 53.6 °F 50.0 °F 88% 30.32 in 10.0 mi Calm Calm - N/A   Clear
12:55 AM 51.8 °F 50.0 °F 94% 30.32 in 10.0 mi Calm Calm - N/A   Clear
1:15 AM 51.8 °F 50.0 °F 94% 30.32 in 10.0 mi Calm Calm - N/A   Clear
1:35 AM 51.8 °F 50.0 °F 94% 30.32 in 10.0 mi Calm Calm - N/A   Clear
1:55 AM 51.8 °F 50.0 °F 94% 30.32 in 10.0 mi Calm Calm - N/A   Clear
2:15 AM 50.0 °F 48.2 °F 94% 30.32 in 10.0 mi Calm Calm - N/A   Clear
2:35 AM 51.8 °F 48.2 °F 88% 30.32 in 10.0 mi Calm Calm - N/A   Clear
2:55 AM 51.8 °F 50.0 °F 94% 30.31 in 10.0 mi Calm Calm - N/A   Clear
3:15 AM 51.8 °F 50.0 °F 94% 30.32 in 10.0 mi Calm Calm - N/A   Clear
3:35 AM 50.0 °F 48.2 °F 94% 30.32 in 10.0 mi Calm Calm - N/A   Clear
3:55 AM 51.8 °F 48.2 °F 88% 30.32 in 10.0 mi Calm Calm - N/A   Clear
4:15 AM 51.8 °F 48.2 °F 88% 30.33 in 10.0 mi Calm Calm - N/A   Clear
4:35 AM 51.8 °F 48.2 °F 88% 30.34 in 10.0 mi Calm Calm - N/A   Clear
4:55 AM 50.0 °F 48.2 °F 94% 30.34 in 10.0 mi Calm Calm - N/A   Clear
5:15 AM 50.0 °F 48.2 °F 94% 30.34 in 10.0 mi Calm Calm - N/A   Clear
5:35 AM 50.0 °F 48.2 °F 94% 30.34 in 10.0 mi Calm Calm - N/A   Clear
5:55 AM 50.0 °F 46.4 °F 87% 30.34 in 10.0 mi Calm Calm - N/A   Clear
6:15 AM 50.0 °F 46.4 °F 87% 30.34 in 10.0 mi Calm Calm - N/A   Clear
6:35 AM 48.2 °F 46.4 °F 93% 30.35 in 10.0 mi Calm Calm - N/A   Clear
6:55 AM 48.2 °F 46.4 °F 93% 30.36 in 10.0 mi Calm Calm - N/A   Clear
7:15 AM 48.2 °F 46.4 °F 93% 30.35 in 10.0 mi Calm Calm - N/A   Clear
7:35 AM 50.0 °F 46.4 °F 87% 30.36 in 10.0 mi Calm Calm - N/A   Clear
7:55 AM 50.0 °F 46.4 °F 87% 30.36 in 10.0 mi Calm Calm - N/A   Clear
8:15 AM 51.8 °F 46.4 °F 82% 30.37 in 10.0 mi Calm Calm - N/A   Clear
8:35 AM 53.6 °F 46.4 °F 77% 30.37 in 10.0 mi Variable 6.9 mph 13.8 mph N/A   Clear
8:55 AM 55.4 °F 46.4 °F 72% 30.38 in 10.0 mi East 10.4 mph 20.7 mph N/A   Clear
9:15 AM 55.4 °F 46.4 °F 72% 30.38 in 10.0 mi East 6.9 mph 18.4 mph N/A   Clear
9:35 AM 57.2 °F 46.4 °F 67% 30.38 in 10.0 mi East 10.4 mph - N/A   Clear
9:55 AM 57.2 °F 44.6 °F 63% 30.38 in 10.0 mi East 6.9 mph 16.1 mph N/A   Clear
10:15 AM 59.0 °F 44.6 °F 59% 30.39 in 10.0 mi ESE 8.1 mph 17.3 mph N/A   Clear
10:35 AM 59.0 °F 44.6 °F 59% 30.39 in 10.0 mi ESE 9.2 mph - N/A   Clear
10:55 AM 60.8 °F 42.8 °F 52% 30.38 in 10.0 mi Variable 5.8 mph 11.5 mph N/A   Clear
11:15 AM 60.8 °F 42.8 °F 52% 30.38 in 10.0 mi NE 5.8 mph 11.5 mph N/A   Clear
11:35 AM 60.8 °F 41.0 °F 48% 30.37 in 10.0 mi North 5.8 mph - N/A   Clear
11:55 AM 62.6 °F 42.8 °F 48% 30.38 in 10.0 mi North 5.8 mph - N/A   Clear
12:15 PM 62.6 °F 41.0 °F 45% 30.38 in 10.0 mi Variable 4.6 mph 11.5 mph N/A   Clear
12:35 PM 64.4 °F 41.0 °F 42% 30.36 in 10.0 mi Variable 4.6 mph - N/A   Clear
12:55 PM 64.4 °F 39.2 °F 40% 30.36 in 10.0 mi NNE 3.5 mph - N/A   Clear
1:15 PM 64.4 °F 41.0 °F 42% 30.36 in 10.0 mi Variable 3.5 mph - N/A   Clear
1:35 PM 66.2 °F 39.2 °F 37% 30.35 in 10.0 mi South 4.6 mph - N/A   Clear
1:55 PM 66.2 °F 39.2 °F 37% 30.35 in 10.0 mi East 5.8 mph - N/A   Clear
2:15 PM 66.2 °F 41.0 °F 40% 30.35 in 10.0 mi Calm Calm - N/A   Clear
2:35 PM 68.0 °F 41.0 °F 37% 30.33 in 10.0 mi Calm Calm - N/A   Clear
2:55 PM 68.0 °F 39.2 °F 35% 30.33 in 10.0 mi ESE 5.8 mph - N/A   Clear
3:15 PM 68.0 °F 39.2 °F 35% 30.33 in 10.0 mi Calm Calm - N/A   Clear
3:35 PM 68.0 °F 41.0 °F 37% 30.32 in 10.0 mi Calm Calm - N/A   Clear
3:55 PM 68.0 °F 39.2 °F 35% 30.32 in 10.0 mi Variable 4.6 mph - N/A   Clear
4:15 PM 68.0 °F 37.4 °F 33% 30.32 in 10.0 mi Calm Calm - N/A   Clear
4:35 PM 68.0 °F 39.2 °F 35% 30.32 in 10.0 mi North 3.5 mph - N/A   Clear
4:55 PM 68.0 °F 39.2 °F 35% 30.31 in 10.0 mi Calm Calm - N/A   Clear
5:15 PM 68.0 °F 39.2 °F 35% 30.31 in 10.0 mi Calm Calm - N/A   Clear
5:35 PM 68.0 °F 39.2 °F 35% 30.32 in 10.0 mi Calm Calm - N/A   Clear
5:55 PM 66.2 °F 39.2 °F 37% 30.31 in 10.0 mi Calm Calm - N/A   Clear
6:15 PM 66.2 °F 42.8 °F 43% 30.32 in 10.0 mi Calm Calm - N/A   Clear
6:35 PM 64.4 °F 42.8 °F 45% 30.32 in 10.0 mi Calm Calm - N/A   Clear
6:55 PM 62.6 °F 44.6 °F 52% 30.32 in 10.0 mi Calm Calm - N/A   Clear
7:15 PM 60.8 °F 44.6 °F 55% 30.32 in 10.0 mi Calm Calm - N/A   Clear
7:35 PM 59.0 °F 44.6 °F 59% 30.31 in 10.0 mi Calm Calm - N/A   Clear
7:55 PM 60.8 °F 44.6 °F 55% 30.31 in 10.0 mi Calm Calm - N/A   Clear
8:15 PM 55.4 °F 46.4 °F 72% 30.31 in 10.0 mi Calm Calm - N/A   Clear
8:35 PM 55.4 °F 46.4 °F 72% 30.31 in 10.0 mi Calm Calm - N/A   Clear
8:55 PM 53.6 °F 46.4 °F 77% 30.32 in 10.0 mi Calm Calm - N/A   Clear
9:15 PM 53.6 °F 46.4 °F 77% 30.32 in 10.0 mi Calm Calm - N/A   Clear
9:35 PM 53.6 °F 48.2 °F 82% 30.32 in - Calm Calm - N/A   Clear
9:55 PM 50.0 °F 46.4 °F 87% 30.32 in 10.0 mi WNW 3.5 mph - N/A   Clear
10:15 PM 53.6 °F 46.4 °F 77% 30.31 in 10.0 mi Calm Calm - N/A   Clear
10:35 PM 51.8 °F 44.6 °F 76% 30.31 in 10.0 mi Calm Calm - N/A   Clear
10:55 PM 51.8 °F 46.4 °F 82% 30.31 in 10.0 mi Calm Calm - N/A   Clear
11:15 PM 51.8 °F 46.4 °F 82% 30.31 in 10.0 mi Calm Calm - N/A   Clear
11:35 PM 51.8 °F 46.4 °F 82% 30.31 in 10.0 mi Calm Calm - N/A   Clear
11:55 PM 53.6 °F 44.6 °F 72% 30.30 in 10.0 mi Calm Calm - N/A   Clear